tijdstip;moment;weekdag;datum;maand;dag;datum;uur;temperatuur;zon_uren;neerslag_duur_h;neerslag_som;elektriciteitsverbruik;waterverbruik;gem_temp;max_temp
1-4-2022 00:00;nacht;vrijdag;1-4-2022;4;1;1-4-2022;0;1.5;0;10;6;1.785319669;2.403368616;3.183333333;5.2
1-4-2022 01:00;nacht;vrijdag;1-4-2022;4;1;1-4-2022;1;0.6;0;10;4;2.01245738;2.329488196;3.183333333;5.2
1-4-2022 02:00;nacht;vrijdag;1-4-2022;4;1;1-4-2022;2;0.5;0;10;8;1.776024842;1.719610209;3.183333333;5.2
1-4-2022 03:00;nacht;vrijdag;1-4-2022;4;1;1-4-2022;3;0.5;0;10;15;1.82291573;1.937592084;3.183333333;5.2
1-4-2022 04:00;nacht;vrijdag;1-4-2022;4;1;1-4-2022;4;1.1;0;10;11;1.656945727;2.135703724;3.183333333;5.2
1-4-2022 05:00;nacht;vrijdag;1-4-2022;4;1;1-4-2022;5;1.5;0;0;0.25;1.916481415;2.098937758;3.183333333;5.2
1-4-2022 06:00;ochtend;vrijdag;1-4-2022;4;1;1-4-2022;6;1.8;0;0;0.25;2.431276146;1.967981404;3.183333333;5.2
1-4-2022 07:00;ochtend;vrijdag;1-4-2022;4;1;1-4-2022;7;2.2;0;0;0.25;1.76115888;2.055272228;3.183333333;5.2
1-4-2022 08:00;ochtend;vrijdag;1-4-2022;4;1;1-4-2022;8;2.4;0;0;0.25;2.347142143;2.011417418;3.183333333;5.2
1-4-2022 09:00;ochtend;vrijdag;1-4-2022;4;1;1-4-2022;9;3.6;0;0;0.25;2.100458865;2.243644897;3.183333333;5.2
1-4-2022 10:00;ochtend;vrijdag;1-4-2022;4;1;1-4-2022;10;4;0;0;0.25;1.777392447;2.39136856;3.183333333;5.2
1-4-2022 11:00;ochtend;vrijdag;1-4-2022;4;1;1-4-2022;11;4.2;0;0;0.25;1.52085437;2.230800062;3.183333333;5.2
1-4-2022 12:00;middag;vrijdag;1-4-2022;4;1;1-4-2022;12;5.2;3;0;0;1.718194256;1.766520239;3.183333333;5.2
1-4-2022 13:00;middag;vrijdag;1-4-2022;4;1;1-4-2022;13;4.7;4;0;0;1.816109218;1.852789607;3.183333333;5.2
1-4-2022 14:00;middag;vrijdag;1-4-2022;4;1;1-4-2022;14;4.8;3;0;0;1.737491533;2.043273208;3.183333333;5.2
1-4-2022 15:00;middag;vrijdag;1-4-2022;4;1;1-4-2022;15;5.1;0;0;0.25;2.397450356;1.782927883;3.183333333;5.2
1-4-2022 16:00;middag;vrijdag;1-4-2022;4;1;1-4-2022;16;5;0;0;0;2.331416451;1.924439284;3.183333333;5.2
1-4-2022 17:00;middag;vrijdag;1-4-2022;4;1;1-4-2022;17;4.8;3;0;0;2.137636095;2.491033263;3.183333333;5.2
1-4-2022 18:00;avond;vrijdag;1-4-2022;4;1;1-4-2022;18;4.2;0;0;0;2.192523049;2.154668245;3.183333333;5.2
1-4-2022 19:00;avond;vrijdag;1-4-2022;4;1;1-4-2022;19;4;0;0;0;1.519363396;2.475595399;3.183333333;5.2
1-4-2022 20:00;avond;vrijdag;1-4-2022;4;1;1-4-2022;20;3.8;0;0;0;1.769156533;1.911538798;3.183333333;5.2
1-4-2022 21:00;avond;vrijdag;1-4-2022;4;1;1-4-2022;21;3.8;0;0;0;2.046073849;2.385579417;3.183333333;5.2
1-4-2022 22:00;avond;vrijdag;1-4-2022;4;1;1-4-2022;22;3.6;0;0;0;2.459792658;2.139921048;3.183333333;5.2
1-4-2022 23:00;avond;vrijdag;1-4-2022;4;1;1-4-2022;23;3.5;0;0;0;1.687479945;1.745988022;3.183333333;5.2
2-4-2022 00:00;nacht;zaterdag;2-4-2022;4;2;2-4-2022;0;3.6;0;0;0;1.806433611;2.287261264;4.475;6.2
2-4-2022 01:00;nacht;zaterdag;2-4-2022;4;2;2-4-2022;1;3.2;0;0;0.25;1.643141325;2.327648818;4.475;6.2
2-4-2022 02:00;nacht;zaterdag;2-4-2022;4;2;2-4-2022;2;3.6;0;0;0.25;1.597341119;1.867257972;4.475;6.2
2-4-2022 03:00;nacht;zaterdag;2-4-2022;4;2;2-4-2022;3;3.1;0;0;0;1.577488475;2.127850901;4.475;6.2
2-4-2022 04:00;nacht;zaterdag;2-4-2022;4;2;2-4-2022;4;3.4;0;0;0;1.950872355;2.033755681;4.475;6.2
2-4-2022 05:00;nacht;zaterdag;2-4-2022;4;2;2-4-2022;5;3.5;2;0;0;2.191097016;1.693845651;4.475;6.2
2-4-2022 06:00;ochtend;zaterdag;2-4-2022;4;2;2-4-2022;6;4.1;8;0;0;1.584707145;1.973375232;4.475;6.2
2-4-2022 07:00;ochtend;zaterdag;2-4-2022;4;2;2-4-2022;7;4.8;9;0;0;1.528118165;1.507103323;4.475;6.2
2-4-2022 08:00;ochtend;zaterdag;2-4-2022;4;2;2-4-2022;8;5;10;0;0;2.004146554;2.378339688;4.475;6.2
2-4-2022 09:00;ochtend;zaterdag;2-4-2022;4;2;2-4-2022;9;5.4;4;0;0;2.040884349;2.144923814;4.475;6.2
2-4-2022 10:00;ochtend;zaterdag;2-4-2022;4;2;2-4-2022;10;5.3;2;0;0;2.377056773;2.172776449;4.475;6.2
2-4-2022 11:00;ochtend;zaterdag;2-4-2022;4;2;2-4-2022;11;6.2;7;0;0;2.101278513;1.619788371;4.475;6.2
2-4-2022 12:00;middag;zaterdag;2-4-2022;4;2;2-4-2022;12;5.9;3;0;0;2.447397729;2.373173966;4.475;6.2
2-4-2022 13:00;middag;zaterdag;2-4-2022;4;2;2-4-2022;13;6.1;3;0;0;2.496155472;1.956416885;4.475;6.2
2-4-2022 14:00;middag;zaterdag;2-4-2022;4;2;2-4-2022;14;5.8;4;0;0;1.768710667;2.319130558;4.475;6.2
2-4-2022 15:00;middag;zaterdag;2-4-2022;4;2;2-4-2022;15;6;8;0;0;2.126728828;2.39752937;4.475;6.2
2-4-2022 16:00;middag;zaterdag;2-4-2022;4;2;2-4-2022;16;6.1;10;0;0;1.538234999;2.365567022;4.475;6.2
2-4-2022 17:00;middag;zaterdag;2-4-2022;4;2;2-4-2022;17;5.4;7;0;0;2.070758297;2.387695088;4.475;6.2
2-4-2022 18:00;avond;zaterdag;2-4-2022;4;2;2-4-2022;18;4.9;0;0;0;2.037749313;2.07069917;4.475;6.2
2-4-2022 19:00;avond;zaterdag;2-4-2022;4;2;2-4-2022;19;4;0;0;0;1.923122076;1.853922242;4.475;6.2
2-4-2022 20:00;avond;zaterdag;2-4-2022;4;2;2-4-2022;20;2.7;0;0;0;1.945507803;1.901384222;4.475;6.2
2-4-2022 21:00;avond;zaterdag;2-4-2022;4;2;2-4-2022;21;3;0;0;0;2.406403418;2.359271291;4.475;6.2
2-4-2022 22:00;avond;zaterdag;2-4-2022;4;2;2-4-2022;22;3.3;0;0;0;2.403823036;2.395572957;4.475;6.2
2-4-2022 23:00;avond;zaterdag;2-4-2022;4;2;2-4-2022;23;3;0;0;0;1.62011698;2.236613929;4.475;6.2
3-4-2022 00:00;nacht;zondag;3-4-2022;4;3;3-4-2022;0;2.9;0;0;0.25;2.026230645;2.421612694;4.933333333;7.1
3-4-2022 01:00;nacht;zondag;3-4-2022;4;3;3-4-2022;1;3.3;0;0;0.25;1.619072054;1.766688419;4.933333333;7.1
3-4-2022 02:00;nacht;zondag;3-4-2022;4;3;3-4-2022;2;3;0;0;0.25;2.434262341;1.828962066;4.933333333;7.1
3-4-2022 03:00;nacht;zondag;3-4-2022;4;3;3-4-2022;3;2.2;0;0;0;1.874222219;2.136201807;4.933333333;7.1
3-4-2022 04:00;nacht;zondag;3-4-2022;4;3;3-4-2022;4;2.1;0;0;0;1.873090783;1.986488311;4.933333333;7.1
3-4-2022 05:00;nacht;zondag;3-4-2022;4;3;3-4-2022;5;2.6;2;0;0;2.364574186;2.408290246;4.933333333;7.1
3-4-2022 06:00;ochtend;zondag;3-4-2022;4;3;3-4-2022;6;4;5;0;0;1.537688357;2.016087817;4.933333333;7.1
3-4-2022 07:00;ochtend;zondag;3-4-2022;4;3;3-4-2022;7;5.7;10;0;0;2.07891965;2.345008211;4.933333333;7.1
3-4-2022 08:00;ochtend;zondag;3-4-2022;4;3;3-4-2022;8;5.2;7;0;0;2.469200984;2.377288747;4.933333333;7.1
3-4-2022 09:00;ochtend;zondag;3-4-2022;4;3;3-4-2022;9;5.3;4;0;0;2.36670292;2.493659136;4.933333333;7.1
3-4-2022 10:00;ochtend;zondag;3-4-2022;4;3;3-4-2022;10;7;7;0;0;1.73171544;2.227181795;4.933333333;7.1
3-4-2022 11:00;ochtend;zondag;3-4-2022;4;3;3-4-2022;11;7;6;0;0;2.099565319;2.392806049;4.933333333;7.1
3-4-2022 12:00;middag;zondag;3-4-2022;4;3;3-4-2022;12;6.9;4;0;0;1.998401871;2.091773597;4.933333333;7.1
3-4-2022 13:00;middag;zondag;3-4-2022;4;3;3-4-2022;13;4.7;0;2;1;1.859921883;1.850729978;4.933333333;7.1
3-4-2022 14:00;middag;zondag;3-4-2022;4;3;3-4-2022;14;6.7;6;1;1;1.512571977;2.179260551;4.933333333;7.1
3-4-2022 15:00;middag;zondag;3-4-2022;4;3;3-4-2022;15;7.1;10;0;0;1.757171602;1.553631221;4.933333333;7.1
3-4-2022 16:00;middag;zondag;3-4-2022;4;3;3-4-2022;16;6.6;10;0;0;1.976056538;2.339738039;4.933333333;7.1
3-4-2022 17:00;middag;zondag;3-4-2022;4;3;3-4-2022;17;6;8;0;0;2.187444985;2.379032531;4.933333333;7.1
3-4-2022 18:00;avond;zondag;3-4-2022;4;3;3-4-2022;18;5.5;0;0;0;2.201174572;2.054441076;4.933333333;7.1
3-4-2022 19:00;avond;zondag;3-4-2022;4;3;3-4-2022;19;5.4;0;0;0;1.638054038;2.489766904;4.933333333;7.1
3-4-2022 20:00;avond;zondag;3-4-2022;4;3;3-4-2022;20;5.1;0;0;0;2.418542815;1.926556883;4.933333333;7.1
3-4-2022 21:00;avond;zondag;3-4-2022;4;3;3-4-2022;21;4.8;0;0;0;2.427564958;2.412668929;4.933333333;7.1
3-4-2022 22:00;avond;zondag;3-4-2022;4;3;3-4-2022;22;4.7;0;0;0;2.015053703;2.020495451;4.933333333;7.1
3-4-2022 23:00;avond;zondag;3-4-2022;4;3;3-4-2022;23;4.6;0;0;0;1.837473109;2.19336077;4.933333333;7.1
4-4-2022 00:00;nacht;maandag;4-4-2022;4;4;4-4-2022;0;4.4;0;0;0;1.731420176;2.078045022;7.4375;9.8
4-4-2022 01:00;nacht;maandag;4-4-2022;4;4;4-4-2022;1;4.1;0;0;0;2.420040208;2.425705162;7.4375;9.8
4-4-2022 02:00;nacht;maandag;4-4-2022;4;4;4-4-2022;2;4.4;0;0;0;1.901620967;1.525292669;7.4375;9.8
4-4-2022 03:00;nacht;maandag;4-4-2022;4;4;4-4-2022;3;4.6;0;0;0;2.188955069;2.054483489;7.4375;9.8
4-4-2022 04:00;nacht;maandag;4-4-2022;4;4;4-4-2022;4;5.5;0;0;0;1.627638725;1.784852253;7.4375;9.8
4-4-2022 05:00;nacht;maandag;4-4-2022;4;4;4-4-2022;5;6.4;0;0;0;2.210742156;2.274874995;7.4375;9.8
4-4-2022 06:00;ochtend;maandag;4-4-2022;4;4;4-4-2022;6;6.7;0;0;0;1.520934696;1.890541915;7.4375;9.8
4-4-2022 07:00;ochtend;maandag;4-4-2022;4;4;4-4-2022;7;5.6;0;4;1;2.262050591;2.08406892;7.4375;9.8
4-4-2022 08:00;ochtend;maandag;4-4-2022;4;4;4-4-2022;8;6.1;0;10;8;2.259865918;2.311054348;7.4375;9.8
4-4-2022 09:00;ochtend;maandag;4-4-2022;4;4;4-4-2022;9;6.4;0;10;13;2.496754812;2.142851026;7.4375;9.8
4-4-2022 10:00;ochtend;maandag;4-4-2022;4;4;4-4-2022;10;7;0;10;12;1.784304001;2.055833126;7.4375;9.8
4-4-2022 11:00;ochtend;maandag;4-4-2022;4;4;4-4-2022;11;7.7;0;10;13;1.66723877;2.07317487;7.4375;9.8
4-4-2022 12:00;middag;maandag;4-4-2022;4;4;4-4-2022;12;7.9;0;9;6;1.757929227;2.039428917;7.4375;9.8
4-4-2022 13:00;middag;maandag;4-4-2022;4;4;4-4-2022;13;8.4;0;8;2;2.3833437;1.541049849;7.4375;9.8
4-4-2022 14:00;middag;maandag;4-4-2022;4;4;4-4-2022;14;8.6;0;0;0;1.803464828;2.245611491;7.4375;9.8
4-4-2022 15:00;middag;maandag;4-4-2022;4;4;4-4-2022;15;8.9;0;0;0;1.580889559;1.786463965;7.4375;9.8
4-4-2022 16:00;middag;maandag;4-4-2022;4;4;4-4-2022;16;9.2;0;0;0;2.139981575;2.429363207;7.4375;9.8
4-4-2022 17:00;middag;maandag;4-4-2022;4;4;4-4-2022;17;9.3;0;0;0.25;2.070642781;2.479251985;7.4375;9.8
4-4-2022 18:00;avond;maandag;4-4-2022;4;4;4-4-2022;18;9.4;0;0;0.25;2.058755549;2.447264755;7.4375;9.8
4-4-2022 19:00;avond;maandag;4-4-2022;4;4;4-4-2022;19;9.5;0;1;1;1.91672068;2.06730498;7.4375;9.8
4-4-2022 20:00;avond;maandag;4-4-2022;4;4;4-4-2022;20;9.4;0;0;0;2.351028682;2.354901611;7.4375;9.8
4-4-2022 21:00;avond;maandag;4-4-2022;4;4;4-4-2022;21;9.6;0;0;0;2.390032266;2.299557141;7.4375;9.8
4-4-2022 22:00;avond;maandag;4-4-2022;4;4;4-4-2022;22;9.8;0;0;0;2.481288501;2.404499541;7.4375;9.8
4-4-2022 23:00;avond;maandag;4-4-2022;4;4;4-4-2022;23;9.6;0;0;0;2.008003773;1.667019819;7.4375;9.8
5-4-2022 00:00;nacht;dinsdag;5-4-2022;4;5;5-4-2022;0;9.6;0;0;0;1.756314381;2.446409231;9.679166667;11
5-4-2022 01:00;nacht;dinsdag;5-4-2022;4;5;5-4-2022;1;9.3;0;7;2;1.529268284;2.290737953;9.679166667;11
5-4-2022 02:00;nacht;dinsdag;5-4-2022;4;5;5-4-2022;2;9.2;0;10;9;1.770164568;2.007304266;9.679166667;11
5-4-2022 03:00;nacht;dinsdag;5-4-2022;4;5;5-4-2022;3;9.4;0;4;3;1.547782197;2.19187421;9.679166667;11
5-4-2022 04:00;nacht;dinsdag;5-4-2022;4;5;5-4-2022;4;9.2;0;0;0.25;2.419594244;1.698235122;9.679166667;11
5-4-2022 05:00;nacht;dinsdag;5-4-2022;4;5;5-4-2022;5;9.5;0;0;0.25;2.353703602;2.324095905;9.679166667;11
5-4-2022 06:00;ochtend;dinsdag;5-4-2022;4;5;5-4-2022;6;9.3;0;6;1;2.188556695;2.368264504;9.679166667;11
5-4-2022 07:00;ochtend;dinsdag;5-4-2022;4;5;5-4-2022;7;9.6;0;5;1;1.810901599;1.789529735;9.679166667;11
5-4-2022 08:00;ochtend;dinsdag;5-4-2022;4;5;5-4-2022;8;9.7;0;3;1;2.045163761;2.340347091;9.679166667;11
5-4-2022 09:00;ochtend;dinsdag;5-4-2022;4;5;5-4-2022;9;9.7;0;4;1;2.034902129;2.227915601;9.679166667;11
5-4-2022 10:00;ochtend;dinsdag;5-4-2022;4;5;5-4-2022;10;9.7;1;6;1;1.525052259;1.882995661;9.679166667;11
5-4-2022 11:00;ochtend;dinsdag;5-4-2022;4;5;5-4-2022;11;11;4;0;0.25;2.373690932;2.294979569;9.679166667;11
5-4-2022 12:00;middag;dinsdag;5-4-2022;4;5;5-4-2022;12;10.5;5;0;0;2.442373713;2.154177503;9.679166667;11
5-4-2022 13:00;middag;dinsdag;5-4-2022;4;5;5-4-2022;13;10.2;1;0;0;1.572073875;1.55421226;9.679166667;11
5-4-2022 14:00;middag;dinsdag;5-4-2022;4;5;5-4-2022;14;9.6;0;0;0;1.623122191;2.084566434;9.679166667;11
5-4-2022 15:00;middag;dinsdag;5-4-2022;4;5;5-4-2022;15;9.4;0;0;0;2.387860347;2.020027084;9.679166667;11
5-4-2022 16:00;middag;dinsdag;5-4-2022;4;5;5-4-2022;16;9.6;0;0;0;1.597277488;1.743408127;9.679166667;11
5-4-2022 17:00;middag;dinsdag;5-4-2022;4;5;5-4-2022;17;9.8;0;0;0;2.087077289;2.105738968;9.679166667;11
5-4-2022 18:00;avond;dinsdag;5-4-2022;4;5;5-4-2022;18;9.6;0;0;0;2.328420001;2.309110622;9.679166667;11
5-4-2022 19:00;avond;dinsdag;5-4-2022;4;5;5-4-2022;19;9.5;0;0;0;1.652015981;2.342497652;9.679166667;11
5-4-2022 20:00;avond;dinsdag;5-4-2022;4;5;5-4-2022;20;9.8;0;0;0;2.324716758;1.86359644;9.679166667;11
5-4-2022 21:00;avond;dinsdag;5-4-2022;4;5;5-4-2022;21;9.5;0;0;0;2.47852464;2.405453762;9.679166667;11
5-4-2022 22:00;avond;dinsdag;5-4-2022;4;5;5-4-2022;22;9.7;0;0;0;2.485949497;2.080338946;9.679166667;11
5-4-2022 23:00;avond;dinsdag;5-4-2022;4;5;5-4-2022;23;9.9;0;0;0;2.290898116;2.040937598;9.679166667;11
6-4-2022 00:00;nacht;woensdag;6-4-2022;4;6;6-4-2022;0;9.6;0;0;0;2.108519603;1.938029815;9.633333333;10.4
6-4-2022 01:00;nacht;woensdag;6-4-2022;4;6;6-4-2022;1;9.2;0;0;0;1.690147168;2.262730752;9.633333333;10.4
6-4-2022 02:00;nacht;woensdag;6-4-2022;4;6;6-4-2022;2;9;0;0;0;1.874174487;2.053428228;9.633333333;10.4
6-4-2022 03:00;nacht;woensdag;6-4-2022;4;6;6-4-2022;3;9;0;0;0;1.809539885;2.033261439;9.633333333;10.4
6-4-2022 04:00;nacht;woensdag;6-4-2022;4;6;6-4-2022;4;9.1;0;0;0;2.013881819;1.83765355;9.633333333;10.4
6-4-2022 05:00;nacht;woensdag;6-4-2022;4;6;6-4-2022;5;9.1;0;0;0;1.625687419;1.557638533;9.633333333;10.4
6-4-2022 06:00;ochtend;woensdag;6-4-2022;4;6;6-4-2022;6;9.4;0;0;0;2.291107157;2.299143384;9.633333333;10.4
6-4-2022 07:00;ochtend;woensdag;6-4-2022;4;6;6-4-2022;7;9.1;0;5;3;1.588940889;2.066204278;9.633333333;10.4
6-4-2022 08:00;ochtend;woensdag;6-4-2022;4;6;6-4-2022;8;9.5;0;3;2;2.326400724;2.392462019;9.633333333;10.4
6-4-2022 09:00;ochtend;woensdag;6-4-2022;4;6;6-4-2022;9;9.9;0;0;0;2.042799095;2.244865393;9.633333333;10.4
6-4-2022 10:00;ochtend;woensdag;6-4-2022;4;6;6-4-2022;10;10.2;1;0;0;1.763077617;2.236880436;9.633333333;10.4
6-4-2022 11:00;ochtend;woensdag;6-4-2022;4;6;6-4-2022;11;10.4;0;0;0;2.466035084;1.863058658;9.633333333;10.4
6-4-2022 12:00;middag;woensdag;6-4-2022;4;6;6-4-2022;12;10.3;0;0;0;1.908797442;2.387895957;9.633333333;10.4
6-4-2022 13:00;middag;woensdag;6-4-2022;4;6;6-4-2022;13;9.3;0;8;20;1.841449193;1.924238955;9.633333333;10.4
6-4-2022 14:00;middag;woensdag;6-4-2022;4;6;6-4-2022;14;9.8;0;6;6;1.859119068;1.73490934;9.633333333;10.4
6-4-2022 15:00;middag;woensdag;6-4-2022;4;6;6-4-2022;15;9.9;0;5;16;1.722115832;2.13578243;9.633333333;10.4
6-4-2022 16:00;middag;woensdag;6-4-2022;4;6;6-4-2022;16;9.7;0;1;1;1.900228011;2.444637336;9.633333333;10.4
6-4-2022 17:00;middag;woensdag;6-4-2022;4;6;6-4-2022;17;9.8;0;2;1;2.381064827;2.46975931;9.633333333;10.4
6-4-2022 18:00;avond;woensdag;6-4-2022;4;6;6-4-2022;18;9.8;0;0;0;2.193166675;2.489468752;9.633333333;10.4
6-4-2022 19:00;avond;woensdag;6-4-2022;4;6;6-4-2022;19;9.8;0;1;1;2.265783621;1.679638279;9.633333333;10.4
6-4-2022 20:00;avond;woensdag;6-4-2022;4;6;6-4-2022;20;10;0;1;1;2.0228093;2.16605158;9.633333333;10.4
6-4-2022 21:00;avond;woensdag;6-4-2022;4;6;6-4-2022;21;10.1;0;0;0;2.080164439;2.333349795;9.633333333;10.4
6-4-2022 22:00;avond;woensdag;6-4-2022;4;6;6-4-2022;22;9.8;0;0;0;2.360399133;2.275947948;9.633333333;10.4
6-4-2022 23:00;avond;woensdag;6-4-2022;4;6;6-4-2022;23;9.4;0;4;1;2.193124452;2.108978955;9.633333333;10.4
7-4-2022 00:00;nacht;donderdag;7-4-2022;4;7;7-4-2022;0;9.6;0;1;1;1.522574716;1.850735865;8.979166667;10.1
7-4-2022 01:00;nacht;donderdag;7-4-2022;4;7;7-4-2022;1;9.9;0;0;0;2.019792445;1.959800655;8.979166667;10.1
7-4-2022 02:00;nacht;donderdag;7-4-2022;4;7;7-4-2022;2;9.8;0;2;1;2.351308174;1.958701295;8.979166667;10.1
7-4-2022 03:00;nacht;donderdag;7-4-2022;4;7;7-4-2022;3;9.5;0;0;0.25;1.61633321;2.016846048;8.979166667;10.1
7-4-2022 04:00;nacht;donderdag;7-4-2022;4;7;7-4-2022;4;9.4;0;7;4;1.633647531;2.049412174;8.979166667;10.1
7-4-2022 05:00;nacht;donderdag;7-4-2022;4;7;7-4-2022;5;5.8;0;10;53;2.443399814;2.332755773;8.979166667;10.1
7-4-2022 06:00;ochtend;donderdag;7-4-2022;4;7;7-4-2022;6;7.1;0;10;51;2.09105941;2.24996394;8.979166667;10.1
7-4-2022 07:00;ochtend;donderdag;7-4-2022;4;7;7-4-2022;7;8.8;1;2;1;2.020491537;2.132114903;8.979166667;10.1
7-4-2022 08:00;ochtend;donderdag;7-4-2022;4;7;7-4-2022;8;9.5;9;0;0;2.140773753;2.030631076;8.979166667;10.1
7-4-2022 09:00;ochtend;donderdag;7-4-2022;4;7;7-4-2022;9;9.5;10;0;0;2.162282149;2.276956142;8.979166667;10.1
7-4-2022 10:00;ochtend;donderdag;7-4-2022;4;7;7-4-2022;10;9.9;9;0;0;2.000923146;2.268673066;8.979166667;10.1
7-4-2022 11:00;ochtend;donderdag;7-4-2022;4;7;7-4-2022;11;10;6;0;0;2.212520636;2.35815634;8.979166667;10.1
7-4-2022 12:00;middag;donderdag;7-4-2022;4;7;7-4-2022;12;9.6;1;0;0.25;2.411490264;1.938694031;8.979166667;10.1
7-4-2022 13:00;middag;donderdag;7-4-2022;4;7;7-4-2022;13;10;1;0;0;2.324035965;1.653409565;8.979166667;10.1
7-4-2022 14:00;middag;donderdag;7-4-2022;4;7;7-4-2022;14;10;2;0;0;1.581096654;2.396089192;8.979166667;10.1
7-4-2022 15:00;middag;donderdag;7-4-2022;4;7;7-4-2022;15;10.1;7;0;0;1.936279213;2.459495621;8.979166667;10.1
7-4-2022 16:00;middag;donderdag;7-4-2022;4;7;7-4-2022;16;9.9;2;0;0;2.326582248;1.722319781;8.979166667;10.1
7-4-2022 17:00;middag;donderdag;7-4-2022;4;7;7-4-2022;17;9.5;2;0;0.25;2.490253452;2.087204873;8.979166667;10.1
7-4-2022 18:00;avond;donderdag;7-4-2022;4;7;7-4-2022;18;9.4;0;8;16;2.011263974;2.03972707;8.979166667;10.1
7-4-2022 19:00;avond;donderdag;7-4-2022;4;7;7-4-2022;19;9.2;0;0;0;1.802503086;1.840216254;8.979166667;10.1
7-4-2022 20:00;avond;donderdag;7-4-2022;4;7;7-4-2022;20;7.8;0;0;0;2.078633055;2.048534108;8.979166667;10.1
7-4-2022 21:00;avond;donderdag;7-4-2022;4;7;7-4-2022;21;7.2;0;1;2;2.045381131;2.034326005;8.979166667;10.1
7-4-2022 22:00;avond;donderdag;7-4-2022;4;7;7-4-2022;22;6.9;0;0;0;2.015680323;2.336001645;8.979166667;10.1
7-4-2022 23:00;avond;donderdag;7-4-2022;4;7;7-4-2022;23;7.1;0;0;0;2.257307303;1.840184846;8.979166667;10.1
8-4-2022 00:00;nacht;vrijdag;8-4-2022;4;8;8-4-2022;0;6.8;0;0;0;2.224735376;2.37853279;6.779166667;8.3
8-4-2022 01:00;nacht;vrijdag;8-4-2022;4;8;8-4-2022;1;6.5;0;0;0;1.58562564;1.855411353;6.779166667;8.3
8-4-2022 02:00;nacht;vrijdag;8-4-2022;4;8;8-4-2022;2;6.2;0;0;0;1.639003032;2.41673617;6.779166667;8.3
8-4-2022 03:00;nacht;vrijdag;8-4-2022;4;8;8-4-2022;3;6.5;0;0;0;1.767544376;2.327717042;6.779166667;8.3
8-4-2022 04:00;nacht;vrijdag;8-4-2022;4;8;8-4-2022;4;6.7;0;0;0;2.269429504;1.8236678;6.779166667;8.3
8-4-2022 05:00;nacht;vrijdag;8-4-2022;4;8;8-4-2022;5;4.8;3;0;0;1.994937985;1.757978164;6.779166667;8.3
8-4-2022 06:00;ochtend;vrijdag;8-4-2022;4;8;8-4-2022;6;5.4;2;0;0;2.115698483;2.393573261;6.779166667;8.3
8-4-2022 07:00;ochtend;vrijdag;8-4-2022;4;8;8-4-2022;7;6;0;0;0;2.335154945;1.68167457;6.779166667;8.3
8-4-2022 08:00;ochtend;vrijdag;8-4-2022;4;8;8-4-2022;8;6.9;0;0;0;2.18287672;2.392859653;6.779166667;8.3
8-4-2022 09:00;ochtend;vrijdag;8-4-2022;4;8;8-4-2022;9;7.5;0;0;0;2.262115024;2.006859497;6.779166667;8.3
8-4-2022 10:00;ochtend;vrijdag;8-4-2022;4;8;8-4-2022;10;7.8;0;0;0;2.400747214;2.032639404;6.779166667;8.3
8-4-2022 11:00;ochtend;vrijdag;8-4-2022;4;8;8-4-2022;11;8.3;0;0;0;2.317575969;2.066210873;6.779166667;8.3
8-4-2022 12:00;middag;vrijdag;8-4-2022;4;8;8-4-2022;12;8.1;0;0;0;2.016826389;2.260204693;6.779166667;8.3
8-4-2022 13:00;middag;vrijdag;8-4-2022;4;8;8-4-2022;13;7.9;0;0;0;2.248657083;1.585279685;6.779166667;8.3
8-4-2022 14:00;middag;vrijdag;8-4-2022;4;8;8-4-2022;14;8.1;1;0;0;1.634761987;2.473566579;6.779166667;8.3
8-4-2022 15:00;middag;vrijdag;8-4-2022;4;8;8-4-2022;15;7.4;0;0;0;2.320211754;2.347583405;6.779166667;8.3
8-4-2022 16:00;middag;vrijdag;8-4-2022;4;8;8-4-2022;16;7.3;3;0;0;1.816516966;2.179370526;6.779166667;8.3
8-4-2022 17:00;middag;vrijdag;8-4-2022;4;8;8-4-2022;17;6.9;8;0;0;2.359157757;2.31182353;6.779166667;8.3
8-4-2022 18:00;avond;vrijdag;8-4-2022;4;8;8-4-2022;18;6.5;0;0;0.25;2.120722244;2.439544159;6.779166667;8.3
8-4-2022 19:00;avond;vrijdag;8-4-2022;4;8;8-4-2022;19;6.4;0;0;0;2.319514694;1.609920351;6.779166667;8.3
8-4-2022 20:00;avond;vrijdag;8-4-2022;4;8;8-4-2022;20;6.3;0;0;0;2.172935179;2.49452355;6.779166667;8.3
8-4-2022 21:00;avond;vrijdag;8-4-2022;4;8;8-4-2022;21;6;0;0;0.25;2.130128653;2.029215408;6.779166667;8.3
8-4-2022 22:00;avond;vrijdag;8-4-2022;4;8;8-4-2022;22;6.2;0;0;0;2.342271749;2.394767823;6.779166667;8.3
8-4-2022 23:00;avond;vrijdag;8-4-2022;4;8;8-4-2022;23;6.2;0;0;0;1.508618674;2.199461654;6.779166667;8.3
9-4-2022 00:00;nacht;zaterdag;9-4-2022;4;9;9-4-2022;0;5.5;0;0;0;1.522123929;2.008793732;7.120833333;9.2
9-4-2022 01:00;nacht;zaterdag;9-4-2022;4;9;9-4-2022;1;6.3;0;0;0;2.174425552;2.473600868;7.120833333;9.2
9-4-2022 02:00;nacht;zaterdag;9-4-2022;4;9;9-4-2022;2;6;0;0;0;2.479250229;1.776169599;7.120833333;9.2
9-4-2022 03:00;nacht;zaterdag;9-4-2022;4;9;9-4-2022;3;6.3;0;0;0;1.504049401;1.517403461;7.120833333;9.2
9-4-2022 04:00;nacht;zaterdag;9-4-2022;4;9;9-4-2022;4;6.3;0;0;0;1.674257808;1.742487855;7.120833333;9.2
9-4-2022 05:00;nacht;zaterdag;9-4-2022;4;9;9-4-2022;5;6.7;5;0;0;1.809995959;1.937802707;7.120833333;9.2
9-4-2022 06:00;ochtend;zaterdag;9-4-2022;4;9;9-4-2022;6;7.1;10;0;0;1.783740885;1.818886279;7.120833333;9.2
9-4-2022 07:00;ochtend;zaterdag;9-4-2022;4;9;9-4-2022;7;7.5;10;0;0;1.966782416;2.394085514;7.120833333;9.2
9-4-2022 08:00;ochtend;zaterdag;9-4-2022;4;9;9-4-2022;8;7.9;10;0;0;2.398061101;2.113479587;7.120833333;9.2
9-4-2022 09:00;ochtend;zaterdag;9-4-2022;4;9;9-4-2022;9;8.2;10;0;0;2.302509718;2.001568482;7.120833333;9.2
9-4-2022 10:00;ochtend;zaterdag;9-4-2022;4;9;9-4-2022;10;8.3;10;0;0;1.892281927;1.883593561;7.120833333;9.2
9-4-2022 11:00;ochtend;zaterdag;9-4-2022;4;9;9-4-2022;11;8.7;10;0;0;2.115798553;2.174643727;7.120833333;9.2
9-4-2022 12:00;middag;zaterdag;9-4-2022;4;9;9-4-2022;12;9;10;0;0;1.649974845;2.007797125;7.120833333;9.2
9-4-2022 13:00;middag;zaterdag;9-4-2022;4;9;9-4-2022;13;8.5;10;0;0;2.253892757;1.995001786;7.120833333;9.2
9-4-2022 14:00;middag;zaterdag;9-4-2022;4;9;9-4-2022;14;9.2;10;0;0;2.058088344;2.111908506;7.120833333;9.2
9-4-2022 15:00;middag;zaterdag;9-4-2022;4;9;9-4-2022;15;8.9;10;0;0;2.416635316;1.529982248;7.120833333;9.2
9-4-2022 16:00;middag;zaterdag;9-4-2022;4;9;9-4-2022;16;7.1;6;0;0.25;2.326806425;1.673393189;7.120833333;9.2
9-4-2022 17:00;middag;zaterdag;9-4-2022;4;9;9-4-2022;17;7.3;10;0;0;2.277052058;2.492320898;7.120833333;9.2
9-4-2022 18:00;avond;zaterdag;9-4-2022;4;9;9-4-2022;18;6.6;0;0;0;2.164249214;2.29082608;7.120833333;9.2
9-4-2022 19:00;avond;zaterdag;9-4-2022;4;9;9-4-2022;19;5.5;0;0;0;1.782408112;1.740421503;7.120833333;9.2
9-4-2022 20:00;avond;zaterdag;9-4-2022;4;9;9-4-2022;20;5.8;0;0;0;1.718462293;2.359841619;7.120833333;9.2
9-4-2022 21:00;avond;zaterdag;9-4-2022;4;9;9-4-2022;21;6;0;0;0;2.40939395;2.001059169;7.120833333;9.2
9-4-2022 22:00;avond;zaterdag;9-4-2022;4;9;9-4-2022;22;6.2;0;0;0;2.423645308;2.32579251;7.120833333;9.2
9-4-2022 23:00;avond;zaterdag;9-4-2022;4;9;9-4-2022;23;6;0;0;0.25;1.626606027;1.786053581;7.120833333;9.2
10-4-2022 00:00;nacht;zondag;10-4-2022;4;10;10-4-2022;0;6.2;0;0;0;1.917840014;1.845535462;8.558333333;12.3
10-4-2022 01:00;nacht;zondag;10-4-2022;4;10;10-4-2022;1;5.9;0;0;0;1.866831118;1.843565404;8.558333333;12.3
10-4-2022 02:00;nacht;zondag;10-4-2022;4;10;10-4-2022;2;5.4;0;0;0;2.421027331;1.999706719;8.558333333;12.3
10-4-2022 03:00;nacht;zondag;10-4-2022;4;10;10-4-2022;3;4.8;0;0;0;1.538759563;2.056100393;8.558333333;12.3
10-4-2022 04:00;nacht;zondag;10-4-2022;4;10;10-4-2022;4;4.9;0;0;0;2.243195271;1.54210215;8.558333333;12.3
10-4-2022 05:00;nacht;zondag;10-4-2022;4;10;10-4-2022;5;5.4;5;0;0;2.318319744;1.693476526;8.558333333;12.3
10-4-2022 06:00;ochtend;zondag;10-4-2022;4;10;10-4-2022;6;6.9;10;0;0;2.185168125;1.813217288;8.558333333;12.3
10-4-2022 07:00;ochtend;zondag;10-4-2022;4;10;10-4-2022;7;8.1;10;0;0;2.391493845;1.559365046;8.558333333;12.3
10-4-2022 08:00;ochtend;zondag;10-4-2022;4;10;10-4-2022;8;8.9;10;0;0;2.469331937;2.273807474;8.558333333;12.3
10-4-2022 09:00;ochtend;zondag;10-4-2022;4;10;10-4-2022;9;9.9;10;0;0;2.13078514;2.283809414;8.558333333;12.3
10-4-2022 10:00;ochtend;zondag;10-4-2022;4;10;10-4-2022;10;10.7;10;0;0;2.193788219;2.471077255;8.558333333;12.3